Previsão horária em Juraszki

Hoje, 24 Junho, Quinta-feira

Tempo Temperatura Precipitação Vento Pressão Humidade
00:00 +20°C° 0.1 mm 1 m/s 728 mmHg 97%
01:00 +20°C° 0.1 mm 1 m/s 728 mmHg 97%
02:00 +20°C° 0 mm 1 m/s 728 mmHg 97%
03:00 +20°C° 0 mm 1 m/s 728 mmHg 97%
04:00 +20°C° 0 mm 1 m/s 727 mmHg 97%
05:00 +21°C° 0 mm 1 m/s 727 mmHg 92%
06:00 +23°C° 0 mm 1 m/s 727 mmHg 87%
07:00 +25°C° 0 mm 1 m/s 727 mmHg 82%
08:00 +27°C° 0.2 mm 1 m/s 727 mmHg 72%
09:00 +29°C° 0.2 mm 2 m/s 727 mmHg 62%
10:00 +31°C° 0.2 mm 2 m/s 727 mmHg 52%
11:00 +32°C° 0.1 mm 2 m/s 727 mmHg 51%
12:00 +32°C° 0.1 mm 2 m/s 727 mmHg 49%
13:00 +34°C° 0.1 mm 2 m/s 727 mmHg 48%
14:00 +33°C° 0.1 mm 3 m/s 727 mmHg 49%
15:00 +33°C° 0.1 mm 3 m/s 726 mmHg 50%
16:00 +33°C° 0.1 mm 3 m/s 726 mmHg 51%
17:00 +30°C° 0.4 mm 3 m/s 726 mmHg 61%
18:00 +27°C° 0.4 mm 2 m/s 726 mmHg 71%
19:00 +25°C° 0.4 mm 1 m/s 726 mmHg 81%
20:00 +24°C° 0.9 mm 1 m/s 726 mmHg 86%
21:00 +23°C° 0.9 mm 1 m/s 726 mmHg 90%
22:00 +21°C° 0.9 mm 1 m/s 726 mmHg 95%
23:00 +21°C° 1.1 mm 1 m/s 726 mmHg 96%

Amanhã, 25 Junho, Sexta-feira

Tempo Temperatura Precipitação Vento Pressão Humidade
00:00 +20°C° 1.1 mm 1 m/s 725 mmHg 97%
01:00 +20°C° 1.1 mm 1 m/s 725 mmHg 97%
02:00 +19°C° 0.2 mm 1 m/s 725 mmHg 98%
03:00 +18°C° 0.2 mm 2 m/s 726 mmHg 98%
04:00 +17°C° 0.2 mm 2 m/s 726 mmHg 98%
05:00 +17°C° 0.1 mm 2 m/s 726 mmHg 98%
06:00 +17°C° 0.1 mm 2 m/s 727 mmHg 97%
07:00 +17°C° 0.1 mm 2 m/s 727 mmHg 97%
08:00 +18°C° 0.1 mm 1 m/s 727 mmHg 96%
09:00 +18°C° 0.1 mm 1 m/s 728 mmHg 95%
10:00 +18°C° 0.1 mm 1 m/s 728 mmHg 94%
11:00 +19°C° 0 mm 1 m/s 728 mmHg 88%
12:00 +19°C° 0 mm 2 m/s 728 mmHg 81%
13:00 +20°C° 0 mm 2 m/s 728 mmHg 75%
14:00 +21°C° 0 mm 2 m/s 728 mmHg 72%
15:00 +21°C° 0 mm 2 m/s 728 mmHg 69%
16:00 +23°C° 0 mm 2 m/s 728 mmHg 66%
17:00 +22°C° 0 mm 1 m/s 728 mmHg 71%
18:00 +21°C° 0 mm 1 m/s 728 mmHg 77%
19:00 +20°C° 0 mm 1 m/s 727 mmHg 82%
20:00 +19°C° 0 mm 1 m/s 728 mmHg 86%
21:00 +16°C° 0 mm 1 m/s 728 mmHg 89%
22:00 +15°C° 0 mm 1 m/s 729 mmHg 92%
23:00 +15°C° 0 mm 1 m/s 728 mmHg 93%

Depois de amanhã, 26 Junho, Sábado

Tempo Temperatura Precipitação Vento Pressão Humidade
00:00 +15°C° 0 mm 1 m/s 728 mmHg 93%
01:00 +14°C° 0 mm 1 m/s 728 mmHg 94%
02:00 +14°C° 0 mm 1 m/s 728 mmHg 94%
03:00 +14°C° 0 mm 1 m/s 728 mmHg 94%
04:00 +14°C° 0 mm 1 m/s 728 mmHg 94%
05:00 +15°C° 0 mm 1 m/s 728 mmHg 89%
06:00 +18°C° 0 mm 1 m/s 729 mmHg 83%
07:00 +20°C° 0 mm 1 m/s 729 mmHg 78%
08:00 +19°C° 0 mm 2 m/s 729 mmHg 72%
09:00 +20°C° 0 mm 2 m/s 729 mmHg 67%
10:00 +21°C° 0 mm 2 m/s 729 mmHg 62%
11:00 +23°C° 0 mm 2 m/s 729 mmHg 59%
12:00 +24°C° 0 mm 2 m/s 729 mmHg 55%
13:00 +25°C° 0 mm 3 m/s 729 mmHg 52%
14:00 +25°C° 0 mm 3 m/s 729 mmHg 54%
15:00 +25°C° 0 mm 3 m/s 728 mmHg 56%
16:00 +25°C° 0 mm 3 m/s 728 mmHg 58%
17:00 +23°C° 0 mm 2 m/s 728 mmHg 66%
18:00 +21°C° 0 mm 2 m/s 728 mmHg 73%
19:00 +21°C° 0 mm 1 m/s 728 mmHg 81%
20:00 +20°C° 0 mm 1 m/s 728 mmHg 84%
21:00 +18°C° 0 mm 1 m/s 728 mmHg 88%
22:00 +16°C° 0 mm 1 m/s 729 mmHg 92%
23:00 +16°C° 0 mm 1 m/s 729 mmHg 93%

27 Junho, Domingo

Tempo Temperatura Precipitação Vento Pressão Humidade
00:00 +15°C° 0 mm 1 m/s 728 mmHg 93%
01:00 +15°C° 0 mm 1 m/s 728 mmHg 93%
02:00 +15°C° 0 mm 1 m/s 728 mmHg 94%
03:00 +15°C° 0 mm 1 m/s 728 mmHg 94%
04:00 +15°C° 0 mm 1 m/s 728 mmHg 94%
05:00 +18°C° 0 mm 1 m/s 729 mmHg 87%
06:00 +20°C° 0 mm 1 m/s 729 mmHg 80%
07:00 +22°C° 0 mm 1 m/s 729 mmHg 72%
08:00 +23°C° 0 mm 1 m/s 729 mmHg 66%
09:00 +25°C° 0 mm 1 m/s 729 mmHg 60%
10:00 +26°C° 0 mm 2 m/s 729 mmHg 53%
11:00 +27°C° 0 mm 2 m/s 729 mmHg 52%
12:00 +27°C° 0 mm 2 m/s 728 mmHg 50%
13:00 +28°C° 0 mm 2 m/s 728 mmHg 49%
14:00 +27°C° 0.1 mm 2 m/s 728 mmHg 53%
15:00 +27°C° 0.1 mm 2 m/s 728 mmHg 57%
16:00 +26°C° 0.1 mm 2 m/s 728 mmHg 61%
17:00 +25°C° 0.2 mm 2 m/s 728 mmHg 68%
18:00 +23°C° 0.2 mm 2 m/s 728 mmHg 75%
19:00 +22°C° 0.2 mm 1 m/s 728 mmHg 81%
20:00 +21°C° 0 mm 1 m/s 728 mmHg 84%
21:00 +20°C° 0 mm 1 m/s 728 mmHg 86%
22:00 +18°C° 0 mm 1 m/s 728 mmHg 88%
23:00 +18°C° 0 mm 1 m/s 728 mmHg 88%

28 Junho, Segunda-feira

Tempo Temperatura Precipitação Vento Pressão Humidade
00:00 +18°C° 0 mm 1 m/s 729 mmHg 89%
01:00 +16°C° 0 mm 1 m/s 729 mmHg 89%
02:00 +16°C° 0 mm 1 m/s 729 mmHg 89%
03:00 +16°C° 0 mm 1 m/s 729 mmHg 90%
04:00 +16°C° 0 mm 1 m/s 729 mmHg 90%
05:00 +19°C° 0 mm 1 m/s 729 mmHg 84%
06:00 +21°C° 0 mm 1 m/s 729 mmHg 78%
07:00 +23°C° 0 mm 1 m/s 729 mmHg 71%
08:00 +25°C° 0 mm 1 m/s 729 mmHg 64%
09:00 +27°C° 0 mm 1 m/s 729 mmHg 56%
10:00 +29°C° 0 mm 1 m/s 729 mmHg 48%
11:00 +29°C° 0 mm 1 m/s 729 mmHg 46%
12:00 +30°C° 0 mm 2 m/s 729 mmHg 44%
13:00 +31°C° 0 mm 2 m/s 729 mmHg 42%
14:00 +30°C° 0 mm 2 m/s 729 mmHg 43%
15:00 +30°C° 0 mm 2 m/s 729 mmHg 45%
16:00 +30°C° 0 mm 2 m/s 729 mmHg 46%
17:00 +28°C° 0 mm 2 m/s 729 mmHg 56%
18:00 +27°C° 0 mm 1 m/s 729 mmHg 66%
19:00 +25°C° 0 mm 1 m/s 729 mmHg 76%
20:00 +24°C° 0 mm 1 m/s 729 mmHg 78%
21:00 +23°C° 0 mm 1 m/s 729 mmHg 80%
22:00 +22°C° 0 mm 1 m/s 729 mmHg 82%
23:00 +21°C° 0 mm 1 m/s 729 mmHg 84%

29 Junho, Terça-feira

Tempo Temperatura Precipitação Vento Pressão Humidade
00:00 +21°C° 0 mm 1 m/s 729 mmHg 85%
01:00 +20°C° 0 mm 1 m/s 729 mmHg 86%
02:00 +20°C° 0 mm 1 m/s 729 mmHg 86%
03:00 +20°C° 0 mm 1 m/s 729 mmHg 85%
04:00 +19°C° 0 mm 1 m/s 728 mmHg 85%
05:00 +22°C° 0 mm 1 m/s 729 mmHg 77%
06:00 +24°C° 0 mm 1 m/s 729 mmHg 70%
07:00 +26°C° 0 mm 1 m/s 729 mmHg 63%
08:00 +28°C° 0 mm 1 m/s 729 mmHg 56%
09:00 +30°C° 0 mm 1 m/s 729 mmHg 50%
10:00 +31°C° 0 mm 1 m/s 729 mmHg 43%
11:00 +32°C° 0 mm 1 m/s 729 mmHg 42%
12:00 +32°C° 0 mm 2 m/s 729 mmHg 40%
13:00 +34°C° 0 mm 2 m/s 729 mmHg 39%
14:00 +31°C° 0 mm 2 m/s 729 mmHg 45%
15:00 +30°C° 0 mm 2 m/s 729 mmHg 52%
16:00 +29°C° 0 mm 2 m/s 729 mmHg 58%
17:00 +28°C° 0 mm 2 m/s 729 mmHg 63%
18:00 +27°C° 0 mm 2 m/s 729 mmHg 67%
19:00 +26°C° 0 mm 1 m/s 728 mmHg 72%
20:00 +25°C° 0 mm 1 m/s 728 mmHg 74%
21:00 +23°C° 0 mm 1 m/s 728 mmHg 76%
22:00 +22°C° 0 mm 1 m/s 728 mmHg 79%
23:00 +21°C° 0.2 mm 2 m/s 728 mmHg 81%
Mostrar mais

Necessitamos do seu Consentimento

A Meteoprog e os seus Fornecedores de Serviços podem armazenar e aceder a dados pessoais como cookies, identificadores do dispositivo ou outras tecnologias semelhantes existentes no seu dispositivo e processar estes dados para personalizar conteúdos e anúncios, assim como funcionalidades nas redes sociais e análise de tráfego.

  • Armazenar e/ou aceder a informações no seu dispositivo

    Os cookies, identificadores do dispositivo ou outras informações podem ser armazenados ou acedidos no seu dispositivo, para os fins acima indicados.

  • Anúncios e conteúdos personalizados, medição de anúncios e conteúdos, dados sobre o público-alvo e desenvolvimento de produtos

    Os anúncios e os conteúdos podem ser personalizados com base num perfil. Podem ser adicionados dados adicionais para uma maior personalização dos anúncios e dos conteúdos. A eficácia dos anúncios e dos conteúdos pode ser medida. Podem ser obtidas informações sobre o público que visualizou os anúncios e os conteúdos. Estes dados podem ser usados para desenvolver ou melhorar sistemas, softwares ou a experiência do utilizador.

Ao clicar em "Eu concordo”, permitirá o uso de cookies, identificadores do dispositivo e web beacons mencionados ou outras tecnologias semelhantes. As configurações do navegador do seu dispositivo podem ser alteradas.

Para certos fins, podem ser invocados interesses legítimos ao invés de consentimento. Pode ler mais informação sobre este assunto na nossa Política de Privacidade e Cookies.